TimeEDT,TemperatureF,Dew PointF,Humidity,Sea Level PressureIn,VisibilityMPH,Wind Direction,Wind SpeedMPH,Gust SpeedMPH,PrecipitationIn,Events,Conditions,WindDirDegrees,DateUTC
12:53 AM,28.9,27.0,92,30.36,10.0,East,3.5,-,N/A,,Clear,80,2011-11-05 04:53:00
1:53 AM,33.1,28.9,85,30.37,10.0,ENE,4.6,-,N/A,,Clear,70,2011-11-05 05:53:00
2:53 AM,34.0,28.9,82,30.36,10.0,ENE,4.6,-,N/A,,Clear,70,2011-11-05 06:53:00
3:53 AM,33.1,28.9,85,30.36,10.0,ENE,4.6,-,N/A,,Clear,60,2011-11-05 07:53:00
4:53 AM,28.9,27.0,92,30.35,10.0,ENE,3.5,-,N/A,,Clear,70,2011-11-05 08:53:00
5:53 AM,34.0,30.0,85,30.34,10.0,ESE,6.9,-,N/A,,Clear,110,2011-11-05 09:53:00
6:53 AM,33.1,30.0,89,30.34,9.0,Calm,Calm,-,N/A,,Clear,0,2011-11-05 10:53:00
7:21 AM,32.0,30.2,93,30.33,10.0,Calm,Calm,-,N/A,,Mostly Cloudy,0,2011-11-05 11:21:00
8:53 AM,30.0,28.0,92,30.38,6.0,Calm,Calm,-,N/A,,Mostly Cloudy,0,2011-11-05 12:53:00
9:12 AM,32.0,28.4,87,30.35,6.0,Calm,Calm,-,N/A,,Scattered Clouds,0,2011-11-05 13:12:00
9:53 AM,39.9,33.1,77,30.38,10.0,SSE,4.6,-,N/A,,Clear,150,2011-11-05 13:53:00
10:53 AM,43.0,30.9,62,30.39,10.0,South,8.1,-,N/A,,Clear,180,2011-11-05 14:53:00
11:53 AM,46.9,28.0,48,30.38,10.0,SSE,9.2,-,N/A,,Clear,160,2011-11-05 15:53:00
12:53 PM,48.9,28.0,44,30.35,10.0,SSE,8.1,-,N/A,,Clear,160,2011-11-05 16:53:00
1:53 PM,52.0,27.0,38,30.32,10.0,SE,9.2,-,N/A,,Clear,140,2011-11-05 17:53:00
3:53 PM,54.0,26.1,34,30.28,10.0,Variable,4.6,-,N/A,,Clear,0,2011-11-05 19:53:00
5:53 PM,48.9,30.0,48,30.26,10.0,SE,6.9,-,N/A,,Clear,130,2011-11-05 21:53:00
6:53 PM,44.1,30.9,60,30.25,10.0,SE,5.8,-,N/A,,Clear,130,2011-11-05 22:53:00
7:53 PM,42.1,30.9,65,30.25,10.0,SE,8.1,-,N/A,,Clear,130,2011-11-05 23:53:00
8:53 PM,39.9,30.9,70,30.25,10.0,East,3.5,-,N/A,,Clear,90,2011-11-06 00:53:00
9:53 PM,39.0,32.0,76,30.24,10.0,East,4.6,-,N/A,,Clear,90,2011-11-06 01:53:00
11:53 PM,32.0,28.9,88,30.22,10.0,Calm,Calm,-,N/A,,Clear,0,2011-11-06 03:53:00